Flag for Germany Weather past 2 weeks in Neuwied, Rhineland-Palatinate, Germany

Now
41 °F

Quite cool.


Feels Like: 36 °F
Forecast: 36 / 43 °F
Wind: 8 mph from Northwest

Location: Buechel

Current Time: Dec 19, 2014 at 9:20:32 PM

Latest Report: Dec 19, 2014 at 8:20 PM


Visibility: 6 mi

Pressure: 30.07 "Hg

Humidity: 87%

Dew point: 37 °F

Location of NeuwiedLocation

Historic Weather in Neuwied — Graph

°F

Neuwied temperature yesterday

Maximum temperature yesterday: 50 °F (at 12:20 PM)
Minimum temperature yesterday: 45 °F (at 12:20 AM)
Average temperature yesterday: 48 °F

Past Weeks' High & Low Weather Summary

 TemperatureHumidityPressure
High50 °F (Dec 18, 12:20 PM)100% (Dec 4, 7:20 PM)30.33 "Hg (Dec 4, 7:20 PM)
Low28 °F (Dec 15, 5:20 AM)81% (Dec 14, 12:20 PM)29.50 "Hg (Dec 12, 3:20 PM)
Average36 °F96%29.96 "Hg
* Reported Dec 4 7:20 PM — Dec 19 7:20 PM, Neuwied, Weather by CustomWeather, © 2014

Note: Actual official high and low records may vary slightly from our data, if they occured in-between our weather recording intervals... More about our weather records

Advertising

Neuwied weather history for previous 24 hours

 ConditionsComfort  
Time TempWeatherWind HumidityBarometerVisibility
7:20 PM
Dec 19
43 °FQuite cool.10 mph87%30.04 "Hg6 mi
6:20 PM43 °FQuite cool.8 mph93%30.01 "Hg6 mi
5:20 PM46 °FCool.10 mph87%29.95 "Hg4 mi
4:20 PM46 °FCool.14 mph100%29.92 "Hg2 mi
3:20 PM46 °FCool.17 mph100%29.89 "Hg2 mi
1:20 PM46 °FCool.18 mph93%29.92 "Hg2 mi
12:20 PM46 °FCool.20 mph93%29.92 "Hg2 mi
11:20 AM46 °FCool.17 mph93%29.92 "Hg1 mi
10:20 AM46 °FLight rain. Fog.18 mph93%29.92 "Hg2 mi
9:20 AM46 °FLight rain. Fog.20 mph93%29.92 "Hg1 mi
8:20 AM46 °FLight rain. Fog.18 mph93%29.95 "Hg1 mi
6:20 AM46 °FLight rain. Fog.17 mph93%29.98 "Hg2 mi
5:20 AM46 °FCool.17 mph93%29.98 "Hg2 mi
4:20 AM46 °FCool.21 mph93%29.98 "Hg2 mi
3:20 AM46 °FCool.17 mph93%29.98 "Hg4 mi
2:20 AM46 °FCool.18 mph100%29.98 "Hg2 mi
1:20 AM46 °FCool.15 mph100%30.01 "Hg1 mi
12:20 AM46 °FCool.17 mph100%30.01 "Hg1 mi
11:20 PM
Dec 18
48 °FCool.17 mph94%30.01 "Hg1 mi
10:20 PM48 °FCool.17 mph94%29.98 "Hg1 mi
9:20 PM48 °FCool.15 mph94%30.01 "Hg3 mi
Weather by CustomWeather, © 2014

See weather overviewHow to use our weather pages